FW6591 Weather Reports


time (UTC)temp
F
wind
direction
speed
knots
gust
knots
rain 1hr
in
rain 24hr
in
rain mn
in
humidity
%
barometer
mb
20260509201548 61 38 5.2 11.3 0.00 0.00 0.00 44 1011.9
20260509200049 60 31 1.7 7.8 0.00 0.00 0.00 48 1012.0
20260509194548 59 41 3.5 5.2 0.00 0.00 0.00 48 1012.4
20260509193046 57 57 1.7 5.2 0.00 0.00 0.00 53 1012.7
20260509191554 54 344 0.9 4.3 0.00 0.00 0.00 58 1012.9
20260509190041 54 0 0.0 1.7 0.00 0.00 0.00 60 1012.9
20260509184557 55 0 0.0 1.7 0.00 0.00 0.00 57 1013.2
20260509183056 55 0 0.0 1.7 0.00 0.00 0.00 58 1013.4
20260509181545 56 0 0.0 1.7 0.00 0.00 0.00 55 1013.6
20260509180044 57 0 0.0 1.7 0.00 0.00 0.00 55 1013.8
20260509174548 57 0 0.0 1.7 0.00 0.00 0.00 53 1013.8
20260509173051 58 0 0.0 1.7 0.00 0.00 0.00 51 1014.0
20260509171544 59 0 0.9 3.5 0.00 0.00 0.00 50 1014.0
20260509170044 59 19 1.7 4.3 0.00 0.00 0.00 50 1013.7
20260509164544 59 16 0.9 4.3 0.00 0.00 0.00 50 1013.7
20260509163042 61 16 0.9 4.3 0.00 0.00 0.00 46 1013.7
20260509161545 62 348 0.9 7.0 0.00 0.00 0.00 44 1013.7
20260509160048 63 307 1.7 7.0 0.00 0.00 0.00 42 1013.8
20260509154544 63 9 0.9 7.0 0.00 0.00 0.00 42 1013.7
20260509153054 65 13 1.7 3.5 0.00 0.00 0.00 40 1013.7
20260509151544 67 332 1.7 7.0 0.00 0.00 0.00 38 1013.7
20260509150042 68 352 1.7 9.6 0.00 0.00 0.00 38 1013.5
20260509144540 69 316 4.3 9.6 0.00 0.00 0.00 34 1013.3
20260509143035 70 315 5.2 12.2 0.00 0.00 0.00 33 1013.4
20260509141544 70 319 7.8 14.8 0.00 0.00 0.00 31 1013.3
20260509140044 70 22 10.4 13.0 0.00 0.00 0.00 32 1013.2
20260509134542 71 320 8.7 14.8 0.00 0.00 0.00 31 1013.3
20260509133046 71 329 8.7 13.0 0.00 0.00 0.00 33 1013.2
20260509131549 71 319 7.0 15.6 0.00 0.00 0.00 33 1013.3
20260509130058 70 352 11.3 15.6 0.00 0.00 0.00 33 1013.4
20260509124550 70 352 12.2 21.7 0.00 0.00 0.00 33 1013.3
20260509123043 70 281 12.2 18.2 0.00 0.00 0.00 33 1013.5
20260509121547 70 313 10.4 17.4 0.00 0.00 0.00 33 1013.6
20260509120038 70 313 11.3 20.9 0.00 0.00 0.00 33 1013.9
20260509114552 70 329 12.2 20.0 0.00 0.00 0.00 31 1014.0
20260509113054 70 314 10.4 19.1 0.00 0.00 0.00 33 1014.2
20260509111542 70 360 8.7 13.9 0.00 0.00 0.00 34 1014.3
20260509110040 69 315 9.6 14.8 0.00 0.00 0.00 34 1014.6
20260509104547 69 352 6.1 17.4 0.00 0.00 0.00 37 1015.1
20260509103058 68 352 7.0 15.6 0.00 0.00 0.00 39 1015.4
20260509101559 69 306 6.1 15.6 0.00 0.00 0.00 37 1015.8
20260509100044 68 323 5.2 15.6 0.00 0.00 0.00 37 1016.0
20260509094556 67 351 8.7 17.4 0.00 0.00 0.00 37 1016.3
20260509093049 66 360 9.6 16.5 0.00 0.00 0.00 38 1016.6
20260509091544 66 325 7.8 17.4 0.00 0.00 0.00 40 1016.9
20260509090052 65 316 7.8 16.5 0.00 0.00 0.00 41 1017.3
20260509084546 65 309 7.8 15.6 0.00 0.00 0.00 41 1017.8
20260509083053 64 30 6.1 13.0 0.00 0.00 0.00 44 1017.9
20260509081535 63 9 4.3 9.6 0.00 0.00 0.00 46 1018.2
20260509080048 63 38 1.7 10.4 0.00 0.00 0.00 49 1018.3
20260509074546 62 44 2.6 8.7 0.00 0.00 0.00 48 1018.6
20260509073040 62 28 4.3 7.8 0.00 0.00 0.00 50 1018.6
20260509071548 62 329 1.7 4.3 0.00 0.00 0.00 51 1018.9
20260509070042 59 0 0.0 3.5 0.00 0.00 0.00 56 1018.9
20260509064542 57 29 0.9 1.7 0.00 0.00 0.00 63 1019.0
20260509063044 54 9 0.9 1.7 0.00 0.00 0.00 64 1019.1
20260509061543 52 21 0.9 2.6 0.00 0.00 0.00 70 1019.2
20260509060104 49 24 0.9 1.7 0.00 0.00 0.00 74 1019.1
20260509054549 46 352 0.9 2.6 0.00 0.00 0.00 79 1019.0
20260509053110 44 9 0.0 0.9 0.00 0.00 0.00 83 1019.0
20260509051553 44 9 0.9 1.7 0.00 0.00 0.00 81 1019.1
20260509050043 45 352 0.9 1.7 0.00 0.00 0.00 81 1018.9
20260509044609 45 9 0.9 2.6 0.00 0.00 0.00 82 1019.0
20260509043117 45 331 0.9 1.7 0.00 0.00 0.00 82 1019.1
20260509041545 46 0 0.0 0.9 0.00 0.00 0.00 80 1019.1
20260509040051 46 319 0.0 1.7 0.00 0.00 0.00 79 1019.2
20260509034549 47 0 0.0 2.6 0.00 0.00 0.00 78 1019.0
20260509033048 47 19 1.7 3.5 0.00 0.00 0.00 79 1019.1
20260509031558 47 9 0.9 3.5 0.00 0.00 0.00 79 1019.2
20260509030108 47 9 1.7 3.5 0.00 0.00 0.00 79 1019.1
20260509024548 48 9 2.6 3.5 0.00 0.00 0.00 77 1019.2
20260509023045 49 17 1.7 3.5 0.00 0.00 0.00 75 1019.2
20260509021547 51 17 1.7 7.0 0.00 0.00 0.00 71 1019.2
20260509020045 50 335 1.7 4.3 0.00 0.00 0.00 74 1019.4
20260509014555 49 0 0.0 1.7 0.00 0.00 0.00 75 1019.6
20260509013044 50 9 0.9 1.7 0.00 0.00 0.00 75 1019.7
20260509011556 50 338 0.0 2.6 0.00 0.00 0.00 74 1020.0
20260509010051 51 0 0.9 4.3 0.00 0.00 0.00 72 1020.0
20260509004555 50 347 0.0 1.7 0.00 0.00 0.00 74 1020.1
20260509003049 49 315 0.0 2.6 0.00 0.00 0.00 77 1020.1
20260509001544 49 334 0.0 2.6 0.00 0.00 0.00 78 1020.4
20260509000043 49 360 0.9 2.6 0.00 0.00 0.00 78 1020.4
20260508234549 49 350 1.7 2.6 0.00 0.00 0.00 77 1020.5
20260508233042 50 336 0.9 3.5 0.00 0.00 0.00 76 1020.5
20260508231548 51 287 2.6 7.0 0.00 0.00 0.00 73 1020.5
20260508230044 47 315 1.7 3.5 0.00 0.00 0.00 82 1020.5
20260508224558 46 346 0.0 1.7 0.00 0.00 0.00 85 1020.1
20260508223051 44 0 0.0 1.7 0.00 0.00 0.00 88 1020.2
20260508221538 45 313 0.0 1.7 0.00 0.00 0.00 87 1020.5
20260508220048 45 352 0.0 1.7 0.00 0.00 0.00 87 1020.3
20260508214544 45 348 0.9 2.6 0.00 0.00 0.00 88 1020.4
20260508213045 44 360 1.7 5.2 0.00 0.00 0.00 87 1020.5
20260508211540 45 350 2.6 6.1 0.00 0.00 0.00 85 1020.5
20260508210050 46 344 2.6 3.5 0.00 0.00 0.00 84 1020.7
20260508204540 47 360 0.9 2.6 0.00 0.00 0.00 83 1020.9
20260508203042 48 0 0.0 3.5 0.00 0.00 0.00 81 1021.0